Погода в Поныри

Погода в Поныри : погода сейчас, прогноз погоды и архив. Всё, что Вы хотите узнать о погоде в Поныри!

Хотите узнать прогноз погоды в Поныри? Тогда Вам сюда: Погода в Поныри

Поиск расширенной информации на нашем сайте:

Другие новости

Новости СМИ2

Главная страница сайта

Новости сайта

03.07.2017

Напоминаем, что на нашем специализированном сайте Метеоцентр.Азия вы можете получить высокодетализированные автоматические прогнозы погоды по пунктам России, СНГ и мира в авиационном формате (включающие направление и скорость ветра, видимость, явления погоды, количество и форму облачности, нижнюю и верхнюю границу облачности).


Погода в Поныри - сегодня

Время (UTC), дата Ветер
(°,м/с) 
Видим.   Явления Облачность Т
(°С)
Тd
(°С)
f(%) Тe
(°С)
Pmin
(гПа)
dP
(гПа)
Po
(мм)
O2
(г/м3)
Тmin Tmax R s Состояние
почвы
12 13.04.18 010 (С) 20000 м    ясно 
+10.3 -3.8 37 +10  1024  -0.4  745  290           
15 13.04.18 040 (СВ) 20000 м    ясно 
+10.7 -3.6 36 +10  1024  745  289           
21 13.04.18 040 (СВ) 20000 м    ясно 
+2.3 -4 63 +1  1026.4  746  299           
00 14.04.18 070 (В) 20000 м    ясно 
+1 -4.3 68 -1  1028.4  1.7  748  301           
03 14.04.18 080 (В) 20000 м    ясно 
+0.2 -4.2 72 -1  1029.8  1.4  749  302  -0.1         
09 14.04.18 100 (В) 20000 м    ясно 
+9.2 -4.7 37 +9  1031.1  0.7  750  293           
12 14.04.18 100 (В) 20000 м    ясно 
+10.9 -3.8 35 +11  1030.6  -0.4  750  291           
15 14.04.18 120 (ЮВ) 2{10}  20000 м    ясно 
+10.7 -3.8 36 +11  1029.6  -1  749  291           
21 14.04.18 140 (ЮВ) 20000 м    ясно 
+2 -3 69 +3  1030.1  -0.4  749  300           
00 15.04.18 170 (Ю) 20000 м    ясно 
+2 -4.1 64 +1  1029.8  -0.2  749  300           
03 15.04.18 140 (ЮВ) 10 км    ясно 
-1.4 -3.1 88 -1  1029.8  -0.4  749  303  -1.6         
09 15.04.18 220 (ЮЗ) 20000 м    ясно 
+13.4 -4.7 28 +15  1026.8  -1  747  288           
12 15.04.18 250 (З) 20000 м    ясно 
+15.4 -2.5 29 +16  1024.8  -1.7  746  285           
15 15.04.18 270 (З) 20000 м    9/9 600 м 
[Sc]
+15 -2.5 30 +15  1022.9  -1.9  745  285           
21 15.04.18 250 (З) 20000 м  слаб. дождь  10/10 300 м 
[Frnb|Ns]
+8.6 +6.2 85 +9  1022.7  -0.3  744  290           
09 16.04.18 250 (З) 20000 м    3/0 верхняя 
[Ci fib]
+16.3 +5.3 48 +17  1021.5  744  282           
12 16.04.18 200 (Ю) 20000 м    3/0 верхняя 
[Ci fib]
+19.8 +5.6 39 +21  1020  -1.1  743  278           
15 16.04.18 270 (З) 20000 м    9/9 600 м 
[Sc]
+18.7 +5.6 42 +20  1018.6  -1.4  742  279           
00 17.04.18 230 (ЮЗ) 20000 м    ясно 
+9.2 +5 75 +10  1018.8  -0.2  741  288           
09 17.04.18 260 (З) 20000 м    9/0 верхняя 
[Cc]
+18.7 +8.8 53 +19  1017.9  0.2  741  278           
12 17.04.18 240 (ЮЗ) 20000 м    9/0 верхняя 
[Ci fib]
+19.3 +5.5 40 +20  1017.5  -0.4  741  278           
15 17.04.18 240 (ЮЗ) 20000 м    9/0 верхняя 
[Ci fib]
+17.2 +1.5 35 +18  1016.2  -1  740  280           
21 17.04.18 220 (ЮЗ) 20000 м    10/10 600 м 
[Sc]
+11.2 -1.9 40 +11  1016.5  -0.7  740  287           
00 18.04.18 220 (ЮЗ) 20000 м    10/10 600 м 
[Sc]
+10.7 -0.2 47 +11  1015.5  -1.1  739  287           
21 18.04.18 290 (З) 20000 м    10/10 300 м кучево-дожд. 
[Cb cap]
+8.5 +5.9 84 +7  1010.5  -2.1  735  286           
Время (UTC), дата Ветер
(°,м/с) 
Видим.   Явления Облачность Т
(°С)
Тd
(°С)
f(%) Тe
(°С)
Pmin
(гПа)
dP
(гПа)
Po
(мм)
O2
(г/м3)
Тmin Tmax R s Состояние
почвы

Для получения пояснительной информации подведите курсор к названию столбца.

ПОГОДА в Поныри - архив

Всё, что Вы хотите узнать о погоде в Поныри - удобно и подробно!

Выберите нужную дату (начиная с 1 января 2015* года) и нажмите кнопку "Найти".
Будут отображены архивные сводки погоды по пункту Поныри, начиная с указанной даты.


Отображать данные в формате CSV (для использования в таблицах Excel)


Внимание! Наш архив погоды предназначен исключительно для личного некоммерческого использования в познавательных целях. Если Вам необходимы официальные справки о состоянии погоды (для производственных, юридических, коммерческих и т.п. целей), обращайтесь в органы Росгидромета.

*Примечание: данная дата относится к архиву по метеостанциям СССР (Россия, СНГ, Балтия).
Архив по метеостанциям Зарубежной Европы и Азии (кроме Китая) хранится 10 дней, по другим регионам земного шара (Китай, Африка, Америка, Австралия, Океания) - 1 день.

Поныри - район местоположения метеостанции


Название, широта, долгота, высота метеостанции:
Поныри 52.3°ш. 36.3°д. 251 м над ур. моря [Российская Федерация]

Дополнительная информация

В oтличие oт бoльшинства пoгoдных сайтoв мы публикуем пoдрoбную метеoинфoрмацию в детальнoм прoфессиoнальнoм фoрмате.

Характеристики температуры и влажнoсти вoздуха измеряются на высoте 2 м в тени вдали oт зданий и деревьев.
Скoрoсть ветра измеряется на высoте 10 м (на урoвне рoста челoвека скoрoсть ветра ниже в 1.5-2 раза). Если метеoстанция нахoдится в гoрoде или в лесу, тo скoрoсть ветра занижена на 2-4 м/с пo сравнению с oткрытым местoм. Скoрoсть ветра над акватoриями крупных рек и oзёр, а также на вершинах хoлмoв на 2-5 м/с выше, чем в oбычных услoвиях.
Атмoсфернoе давление в разных тoчках местнoсти мoжет значительнo oтличаться oт давления на метеoстанции, в зависимoсти oт услoвий рельефа (при пoдъёме на 10 м давление пoнижается примернo на 1 мм рт.ст.).